FW1198 Weather Reports


time (UTC)temp
C
wind
direction
speed
KPH
gust
KPH
rain 1hr
cm
rain 24hr
cm
rain mn
cm
humidity
%
barometer
mb
20260503193108 16 189 3.2 19.3 0.00 0.00 0.00 62 1012.8
20260503191551 16 163 11.3 20.9 0.00 0.00 0.00 60 1012.7
20260503190100 16 178 8.0 19.3 0.00 0.00 0.00 62 1012.8
20260503184547 16 212 6.4 16.1 0.00 0.00 0.00 62 1012.8
20260503183058 15 261 4.8 9.7 0.00 0.00 0.00 66 1012.9
20260503181548 15 179 3.2 12.9 0.00 0.00 0.00 67 1012.8
20260503180055 15 251 1.6 9.7 0.00 0.00 0.00 70 1013.0
20260503174548 14 109 4.8 14.5 0.00 0.00 0.00 70 1013.0
20260503173111 14 248 8.0 20.9 0.00 0.00 0.00 71 1012.9
20260503171554 15 229 6.4 14.5 0.00 0.00 0.00 70 1012.8
20260503081550 12 299 3.2 8.0 0.00 0.00 0.00 77 1011.7
20260503071602 12 346 3.2 8.0 0.00 0.00 0.00 77 1011.9
20260503054543 13 28 4.8 14.5 0.00 0.00 0.00 76 1012.2
20260503053046 13 19 3.2 11.3 0.00 0.00 0.00 76 1012.3
20260503051555 13 347 4.8 9.7 0.00 0.00 0.00 76 1012.3
20260503050048 13 26 9.7 16.1 0.00 0.00 0.00 76 1012.3
20260503044544 13 351 3.2 14.5 0.00 0.00 0.00 76 1012.1
20260503043041 13 360 3.2 11.3 0.00 0.00 0.00 76 1012.1
20260503041548 13 317 4.8 12.9 0.00 0.00 0.00 75 1012.1
20260503040049 13 9 9.7 16.1 0.00 0.00 0.00 75 1011.9
20260503034549 13 9 8.0 17.7 0.00 0.00 0.00 74 1011.7
20260503033046 13 325 6.4 17.7 0.00 0.00 0.00 74 1011.6
20260503031543 13 22 8.0 16.1 0.00 0.00 0.00 74 1011.4
20260503030050 14 360 6.4 16.1 0.00 0.00 0.00 74 1011.3
20260503024547 14 17 6.4 22.5 0.00 0.00 0.00 76 1011.1
20260503023048 14 19 11.3 22.5 0.00 0.00 0.00 75 1011.0
20260503021549 15 9 8.0 24.1 0.00 0.00 0.00 73 1010.9
20260503020050 15 360 11.3 20.9 0.00 0.00 0.00 73 1010.9
20260503014619 15 345 11.3 20.9 0.00 0.00 0.00 73 1010.9
20260503013049 15 5 12.9 19.3 0.00 0.00 0.00 73 1010.9
20260503011550 16 5 11.3 22.5 0.00 0.00 0.00 72 1011.0
20260503010054 16 328 11.3 20.9 0.00 0.00 0.00 72 1011.0
20260503004600 16 11 14.5 24.1 0.00 0.00 0.00 71 1010.9
20260503003053 16 34 11.3 22.5 0.00 0.00 0.00 70 1011.0
20260503001550 17 322 11.3 25.7 0.00 0.00 0.00 70 1011.0
20260503000045 17 347 11.3 29.0 0.00 0.00 0.00 68 1011.0
20260502234547 17 333 11.3 25.7 0.00 0.00 0.00 68 1010.9
20260502233052 18 5 11.3 22.5 0.00 0.00 0.00 66 1011.0
20260502231549 18 360 9.7 20.9 0.00 0.00 0.00 66 1011.2
20260502230042 18 34 6.4 19.3 0.00 0.00 0.00 66 1011.3
20260502224602 18 5 11.3 20.9 0.00 0.00 0.00 66 1011.5
20260502223047 18 17 8.0 19.3 0.00 0.00 0.00 65 1011.6
20260502221552 18 342 8.0 22.5 0.00 0.00 0.00 66 1011.9
20260502220051 19 317 8.0 20.9 0.00 0.00 0.00 65 1012.0
20260502214549 18 295 6.4 17.7 0.00 0.00 0.00 66 1012.2
20260502213103 18 274 6.4 19.3 0.00 0.00 0.00 66 1012.3
20260502211559 18 319 8.0 22.5 0.00 0.00 0.00 67 1012.3
20260502210043 18 360 11.3 22.5 0.00 0.00 0.00 65 1012.5
20260502204549 19 0 1.6 11.3 0.00 0.00 0.00 65 1012.8
20260502203058 18 82 4.8 11.3 0.00 0.00 0.00 65 1013.0
20260502201552 18 173 8.0 14.5 0.00 0.00 0.00 66 1013.2
20260502200043 18 120 4.8 14.5 0.00 0.00 0.00 66 1013.4
20260502194559 17 164 4.8 11.3 0.00 0.00 0.00 69 1013.5